Regional Weather Roundup
Issued by NWS Kansas City/Pleasant Hill, MO

Home | Current Version | Previous Version | Graphics & Text | Print | Product List | Glossary Off
Versions: 1 2 3 4 5 6 7 8 9 10 11 12 13 14 15 16 17 18 19 20 21 22 23 24 25 26 27

000
ASUS43 KEAX 201010
RWREAX

WEATHER ROUNDUP FOR EASTERN KANSAS AND NORTHWEST MISSOURI
NATIONAL WEATHER SERVICE KANSAS CITY/PLEASANT HILL MO
500 AM CDT WED SEP 20 2017

KSZ040-057-103>105-MOZ028-029-037-043-201100-
...KANSAS CITY METROPOLITAN AREA...

CITY           SKY/WX    TMP DP  RH WIND       PRES   REMARKS
K.C. INTL      CLOUDY    75  69  81 S14       29.72R
K.C. DOWNTOWN  CLOUDY    77  70  79 S9        29.72R
LEES SUMMIT    CLOUDY    74  70  87 S15       29.75R
OLATHE - IXD   PTCLDY    74  69  85 S15       29.73S
OLATHE - OJC   CLOUDY    74  70  87 S17       29.74R
LAWRENCE       MOCLDY    76  70  82 S14G25    29.69S

$$

MOZ001>008-011>017-020>025-030>033-038>040-044>046-053-054-201100-
...NORTHERN AND CENTRAL MISSOURI...

CITY           SKY/WX    TMP DP  RH WIND       PRES   REMARKS
ST. JOSEPH     CLOUDY    76  70  82 S14       29.69R
MOSBY          MOSUNNY   75  68  78 S6        29.73R
WARRENSBURG    CLEAR     72  68  88 S12       29.77R
WHITEMAN AFB   PTCLDY    73  68  84 S13       29.77R
CLINTON        CLEAR     73  70  88 S8        29.80R
SEDALIA        CLEAR     74  71  91 S10       29.80R
WARSAW         NOT AVBL
CHILLICOTHE      N/A     73  69  87 VRB5      29.75R
KIRKSVILLE     CLEAR     73  67  81 S12       29.78S

$$

MOZ041-047>049-056>058-063>065-088>090-097-201100-
...EASTERN AND SOUTHERN MISSOURI...

CITY           SKY/WX    TMP DP  RH WIND       PRES   REMARKS
ST. LOUIS INTL CLEAR     74  69  85 S6        29.87R
SPIRIT OF STL  CLEAR     73  68  84 CALM      29.85R
COLUMBIA       CLEAR     72  69  90 SE9       29.82S
JEFFERSON CITY CLEAR     74  68  81 SE5       29.81S
ROLLA          CLEAR     72  69  90 S10       29.87S
OSAGE BEACH    CLEAR     72  69  90 S9        29.84S
SPRINGFIELD    CLEAR     72  70  93 S14       29.84S
BRANSON        CLEAR     68  68 100 SE3       29.88S FOG
JOPLIN         CLEAR     75  72  90 S16       29.80S
WEST PLAINS    CLEAR     71  69  93 S6        29.91S

$$

IAZ060-094-KSZ022-034>040-054-083-096-NEZ052-066-093-201100-
...KANSAS...SOUTHEAST NEBRASKA AND IOWA...

CITY           SKY/WX    TMP DP  RH WIND       PRES   REMARKS
TOPEKA         PTCLDY    77  71  82 S14G29    29.68R
MANHATTAN      CLEAR     76  69  79 SW6       29.68R
EMPORIA        CLOUDY    74  68  81 S17       29.70R
CHANUTE        CLOUDY    75  71  87 S12       29.75F
WICHITA        PTCLDY    75  66  73 S16       29.69S
OMAHA          MOCLDY    75  69  81 S3        29.64S
LINCOLN        CLEAR     68  54  60 N18       29.68R
FALLS CITY     PTCLDY    77  69  76 SW8G17    29.68R
LAMONI         CLOUDY    71  68  90 S9        29.72R
DES MOINES     CLOUDY    76  68  76 S15       29.67S

$$





USA.gov is the U.S. government's official web portal to all federal, state and local government web resources and services.